This is the latest recevied weather packets stored in our database for station/object EI4HQ. If no packets are shown the sender has not sent any weather packets the latest 10 day(s).
| Time | Temp. | Humidity | Pressure | Rain* | Wind** | Luminosity | Snow |
|---|---|---|---|---|---|---|---|
| 1777984563 | 13.33° C | 61% | 1017 hPa | 0 mm | - | - | - |
| 1777984023 | 13.89° C | 61% | 1017 hPa | 0 mm | - | - | - |
| 1777983483 | 13.89° C | 61% | 1017 hPa | 0 mm | - | - | - |
| 1777982943 | 13.89° C | 60% | 1017 hPa | 0 mm | - | - | - |
| 1777982403 | 13.33° C | 61% | 1017.1 hPa | 0 mm | - | - | - |
| 1777982043 | 13.33° C | 60% | 1017.1 hPa | 0 mm | - | - | - |
| 1777981503 | 13.33° C | 62% | 1017 hPa | 0 mm | - | - | - |
| 1777980963 | 13.33° C | 63% | 1017 hPa | 0 mm | - | - | - |
| 1777980423 | 13.89° C | 62% | 1017 hPa | 0 mm | - | - | - |
| 1777979883 | 13.89° C | 62% | 1017 hPa | 0 mm | - | - | - |
| 1777979343 | 13.33° C | 64% | 1017.1 hPa | 0 mm | - | - | - |
| 1777978803 | 13.33° C | 64% | 1017.3 hPa | 0 mm | - | - | - |
| 1777978443 | 13.33° C | 65% | 1017.2 hPa | 0 mm | - | - | - |
| 1777977903 | 13.89° C | 64% | 1017.3 hPa | 0 mm | - | - | - |
| 1777977363 | 12.78° C | 65% | 1017.3 hPa | 0 mm | - | - | - |
| 1777976823 | 12.78° C | 67% | 1017.4 hPa | 0 mm | - | - | - |
| 1777976283 | 12.78° C | 67% | 1017.4 hPa | 0 mm | - | - | - |
| 1777975743 | 12.78° C | 66% | 1017.5 hPa | 0 mm | - | - | - |
| 1777975203 | 13.33° C | 67% | 1017.4 hPa | 0 mm | - | - | - |
| 1777974843 | 13.33° C | 67% | 1017.4 hPa | 0 mm | - | - | - |
| 1777974303 | 12.78° C | 68% | 1017.4 hPa | 0 mm | - | - | - |
| 1777973763 | 12.78° C | 67% | 1017.4 hPa | 0 mm | - | - | - |
| 1777973223 | 12.78° C | 67% | 1017.5 hPa | 0 mm | - | - | - |
| 1777972683 | 12.78° C | 69% | 1017.4 hPa | 0 mm | - | - | - |
| 1777972143 | 12.22° C | 70% | 1017.4 hPa | 0 mm | - | - | - |
* Rain latest hour (hover to see other rain measurements)
** Current wind speed in m/s (hover to see current wind gust speed)